Humidity-temperature Sensor

Selected Measurement Type: Air Temperature

 
Air Temperature [°C]     6 entries per hour
Showing data from 8/22/2016 (00:00:00 Z) to 8/15/2016 (00:01:00 Z)
Previous Next [ Day | 3-Days | 7-Days ]
First Last
Prev [ Day | 3-Days | 7-Days ] Next
First Last

Start Time:     :
End Time:     :     
Time (in GMT) :00 :50 :40 :30 :20 :10
Previous Next [ Day | 3-Days | 7-Days ]
First Last
Prev [ Day | 3-Days | 7-Days ] Next
First Last


123 => good data
MM => data is determined as missing
-- => data not received/configured
Back to Top Back to Top
8/22/2016 00:00 to 23:10 20.46 20.50 20.50 20.54 20.58 20.57
8/21/2016 23:00 to 22:10 20.58 20.62 20.62 20.62 20.65 20.64
8/21/2016 22:00 to 21:10 20.64 20.61 20.58 20.74 20.72 20.75
8/21/2016 21:00 to 20:10 20.72 20.69 20.70 20.72 20.76 20.76
8/21/2016 20:00 to 19:10 20.76 20.73 20.72 20.73 20.72 20.64
8/21/2016 19:00 to 18:10 20.63 20.66 20.54 20.53 20.54 20.60
8/21/2016 18:00 to 17:10 20.58 20.56 20.57 20.59 20.56 20.52
8/21/2016 17:00 to 16:10 20.49 20.44 20.46 20.47 20.45 20.45
8/21/2016 16:00 to 15:10 20.44 20.42 20.42 20.43 20.37 20.38
8/21/2016 15:00 to 14:10 20.37 20.33 20.28 20.34 20.36 20.41
8/21/2016 14:00 to 13:10 20.37 20.38 20.36 20.37 20.41 20.37
8/21/2016 13:00 to 12:10 20.38 20.41 20.42 20.45 20.41 20.37
8/21/2016 12:00 to 11:10 20.33 20.34 20.37 20.39 20.40 20.42
8/21/2016 11:00 to 10:10 20.44 20.46 20.43 20.46 20.48 20.44
8/21/2016 10:00 to 9:10 20.43 20.44 20.40 20.44 20.46 20.49
8/21/2016 09:00 to 8:10 20.41 20.48 20.46 20.44 20.52 20.49
8/21/2016 08:00 to 7:10 20.47 20.51 20.52 20.55 20.46 20.49
8/21/2016 07:00 to 6:10 20.52 20.52 20.51 20.56 20.58 20.56
8/21/2016 06:00 to 5:10 20.62 20.58 20.56 20.58 20.61 20.64
8/21/2016 05:00 to 4:10 20.60 20.62 20.62 20.63 20.71 20.69
8/21/2016 04:00 to 3:10 20.67 20.72 20.70 20.76 20.75 20.79
8/21/2016 03:00 to 2:10 20.74 20.73 20.73 20.71 20.74 20.72
8/21/2016 02:00 to 1:10 20.73 20.71 20.73 20.75 20.73 20.73
8/21/2016 01:00 to 0:10 20.75 20.71 20.61 20.45 20.65 20.78
8/21/2016 00:00 to 23:10 20.73 20.77 20.81 20.78 20.81 20.76
8/20/2016 23:00 to 22:10 20.85 20.81 20.83 20.86 20.92 20.82
8/20/2016 22:00 to 21:10 20.83 20.85 20.88 20.92 20.88 20.88
8/20/2016 21:00 to 20:10 20.83 20.92 20.85 20.79 20.77 20.83
8/20/2016 20:00 to 19:10 20.79 20.87 20.77 20.77 20.79 20.74
8/20/2016 19:00 to 18:10 20.73 20.69 20.58 20.52 20.38 20.22
8/20/2016 18:00 to 17:10 20.43 20.45 20.53 20.44 20.39 20.32
8/20/2016 17:00 to 16:10 20.33 20.40 20.23 20.20 20.23 20.28
8/20/2016 16:00 to 15:10 -- -- -- -- -- --
8/20/2016 15:00 to 14:10 20.56 20.46 20.51 20.44 20.52 20.33
8/20/2016 14:00 to 13:10 20.37 20.59 20.59 20.51 20.56 20.44
8/20/2016 13:00 to 12:10 20.34 20.28 20.27 20.56 20.36 20.23
8/20/2016 12:00 to 11:10 20.35 20.47 20.52 20.56 20.49 20.40
8/20/2016 11:00 to 10:10 20.58 20.80 20.83 20.60 20.70 20.66
8/20/2016 10:00 to 9:10 20.49 20.92 20.91 21.07 21.01 20.91
8/20/2016 09:00 to 8:10 20.58 20.05 20.17 20.66 20.50 20.57
8/20/2016 08:00 to 7:10 20.25 20.64 20.80 20.95 20.93 21.14
8/20/2016 07:00 to 6:10 21.08 20.95 20.89 21.08 21.08 21.14
8/20/2016 06:00 to 5:10 21.21 21.11 21.11 21.10 21.13 21.39
8/20/2016 05:00 to 4:10 21.28 21.51 21.52 21.44 21.38 21.27
8/20/2016 04:00 to 3:10 21.28 21.43 21.44 21.27 21.03 21.03
8/20/2016 03:00 to 2:10 20.90 21.22 21.34 21.47 21.49 21.60
8/20/2016 02:00 to 1:10 21.64 21.69 21.65 21.50 21.43 21.33
8/20/2016 01:00 to 0:10 21.34 21.23 21.11 20.96 20.70 20.75
8/20/2016 00:00 to 23:10 20.83 20.96 20.99 21.15 21.15 21.20
8/19/2016 23:00 to 22:10 21.25 21.33 21.29 21.34 21.38 21.40
8/19/2016 22:00 to 21:10 21.35 21.44 21.37 21.33 21.31 21.31
8/19/2016 21:00 to 20:10 21.30 21.28 21.19 21.33 21.22 21.14
8/19/2016 20:00 to 19:10 21.14 21.19 21.09 21.17 21.07 21.12
8/19/2016 19:00 to 18:10 21.21 21.05 20.98 20.97 20.97 20.91
8/19/2016 18:00 to 17:10 21.00 21.00 20.84 20.89 20.92 20.79
8/19/2016 17:00 to 16:10 20.94 20.89 20.94 20.94 20.99 21.07
8/19/2016 16:00 to 15:10 20.99 21.02 20.90 20.86 20.87 20.81
8/19/2016 15:00 to 14:10 20.77 20.91 20.92 20.90 20.67 20.58
8/19/2016 14:00 to 13:10 20.66 20.82 20.78 20.93 20.73 20.79
8/19/2016 13:00 to 12:10 20.86 20.85 20.79 20.78 20.81 20.77
8/19/2016 12:00 to 11:10 20.73 20.65 20.80 20.71 20.64 20.70
8/19/2016 11:00 to 10:10 20.68 20.69 20.65 20.68 20.72 20.68
8/19/2016 10:00 to 9:10 20.70 20.71 20.71 20.75 20.74 20.82
8/19/2016 09:00 to 8:10 20.91 20.87 20.96 20.85 20.79 20.83
8/19/2016 08:00 to 7:10 20.80 20.81 20.86 20.90 20.96 20.92
8/19/2016 07:00 to 6:10 20.96 21.10 21.01 21.05 21.06 21.07
8/19/2016 06:00 to 5:10 21.10 21.15 21.13 21.20 21.22 21.17
8/19/2016 05:00 to 4:10 21.20 21.28 21.32 21.33 21.30 21.35
8/19/2016 04:00 to 3:10 21.42 21.37 21.46 21.45 21.51 21.42
8/19/2016 03:00 to 2:10 21.42 21.38 21.32 21.38 21.35 21.42
8/19/2016 02:00 to 1:10 21.38 21.35 21.36 21.40 21.31 21.44
8/19/2016 01:00 to 0:10 21.43 21.31 21.31 21.31 21.39 21.29
8/19/2016 00:00 to 23:10 21.25 21.28 21.30 21.24 21.34 21.25
8/18/2016 23:00 to 22:10 21.24 21.24 21.29 21.32 21.32 21.29
8/18/2016 22:00 to 21:10 21.31 21.24 21.29 21.24 21.21 21.19
8/18/2016 21:00 to 20:10 21.16 21.21 21.14 21.11 21.16 21.16
8/18/2016 20:00 to 19:10 21.06 21.10 21.08 21.02 21.02 21.10
8/18/2016 19:00 to 18:10 21.05 21.00 20.99 20.90 20.94 20.87
8/18/2016 18:00 to 17:10 20.92 20.91 20.84 20.92 20.92 20.94
8/18/2016 17:00 to 16:10 20.95 20.86 20.90 20.93 20.89 20.91
8/18/2016 16:00 to 15:10 20.85 20.89 20.85 20.85 20.89 20.88
8/18/2016 15:00 to 14:10 20.77 20.85 20.82 20.77 20.72 20.62
8/18/2016 14:00 to 13:10 20.66 20.64 20.60 20.62 20.56 20.49
8/18/2016 13:00 to 12:10 20.40 20.31 20.28 20.25 20.14 20.23
8/18/2016 12:00 to 11:10 20.16 20.17 20.19 20.29 20.11 20.17
8/18/2016 11:00 to 10:10 20.01 20.08 20.14 20.00 20.02 19.93
8/18/2016 10:00 to 9:10 19.88 19.95 19.99 20.07 20.16 20.18
8/18/2016 09:00 to 8:10 20.20 20.22 20.25 20.23 20.30 20.29
8/18/2016 08:00 to 7:10 20.29 20.24 20.29 20.35 20.35 20.33
8/18/2016 07:00 to 6:10 20.37 20.34 20.37 20.42 20.38 20.41
8/18/2016 06:00 to 5:10 20.38 20.46 20.37 20.48 20.43 20.48
8/18/2016 05:00 to 4:10 20.38 20.40 20.32 20.31 20.39 20.33
8/18/2016 04:00 to 3:10 20.26 20.25 20.27 20.23 20.26 20.27
8/18/2016 03:00 to 2:10 20.29 20.26 20.26 20.20 20.27 20.24
8/18/2016 02:00 to 1:10 20.21 20.18 20.15 20.19 20.23 20.19
8/18/2016 01:00 to 0:10 20.19 20.16 20.14 20.16 20.21 20.16
8/18/2016 00:00 to 23:10 20.17 20.19 20.21 20.18 20.21 20.16
8/17/2016 23:00 to 22:10 20.15 20.12 20.10 20.11 20.11 20.05
8/17/2016 22:00 to 21:10 20.03 19.98 19.94 19.88 19.92 19.90
8/17/2016 21:00 to 20:10 19.89 19.94 19.95 19.96 19.92 19.88
8/17/2016 20:00 to 19:10 19.91 19.71 19.71 19.62 19.60 19.72
8/17/2016 19:00 to 18:10 19.68 19.64 19.59 19.67 19.64 19.59
8/17/2016 18:00 to 17:10 19.51 19.56 19.51 19.53 19.55 19.43
8/17/2016 17:00 to 16:10 19.40 19.37 19.12 19.16 19.28 19.28
8/17/2016 16:00 to 15:10 -- -- -- -- -- --
8/17/2016 15:00 to 14:10 19.84 19.81 19.77 19.83 19.70 19.84
8/17/2016 14:00 to 13:10 19.96 19.87 19.88 19.76 19.78 19.52
8/17/2016 13:00 to 12:10 19.35 19.36 19.32 19.23 19.31 19.27
8/17/2016 12:00 to 11:10 19.28 19.23 19.22 19.20 19.24 19.26
8/17/2016 11:00 to 10:10 19.27 19.18 19.24 19.21 19.20 19.15
8/17/2016 10:00 to 9:10 19.17 19.20 19.24 19.25 19.26 19.27
8/17/2016 09:00 to 8:10 19.28 19.33 19.36 19.37 19.37 19.42
8/17/2016 08:00 to 7:10 19.43 19.46 19.48 19.52 19.52 19.54
8/17/2016 07:00 to 6:10 19.58 19.59 19.62 19.67 19.70 19.76
8/17/2016 06:00 to 5:10 19.77 19.82 19.73 19.78 19.76 19.74
8/17/2016 05:00 to 4:10 19.72 19.71 19.70 19.72 19.70 19.71
8/17/2016 04:00 to 3:10 19.72 19.72 19.72 19.75 19.75 19.77
8/17/2016 03:00 to 2:10 19.82 19.78 19.83 19.78 19.81 19.85
8/17/2016 02:00 to 1:10 19.85 19.88 19.94 19.97 20.01 20.04
8/17/2016 01:00 to 0:10 20.04 20.15 20.14 20.10 20.14 20.21
8/17/2016 00:00 to 23:10 20.27 20.35 20.36 20.36 20.40 20.33
8/16/2016 23:00 to 22:10 20.30 20.27 20.32 20.36 20.32 20.30
8/16/2016 22:00 to 21:10 20.32 20.34 20.28 20.25 20.30 20.29
8/16/2016 21:00 to 20:10 20.30 20.31 20.43 20.34 20.30 20.29
8/16/2016 20:00 to 19:10 20.42 20.34 20.31 20.35 20.41 20.40
8/16/2016 19:00 to 18:10 20.33 20.24 20.29 20.29 20.29 20.24
8/16/2016 18:00 to 17:10 20.23 20.25 20.17 20.14 20.20 20.18
8/16/2016 17:00 to 16:10 20.18 20.20 20.20 20.21 20.22 20.16
8/16/2016 16:00 to 15:10 20.23 20.19 20.17 20.14 20.20 20.21
8/16/2016 15:00 to 14:10 20.16 20.12 20.16 20.05 20.05 20.09
8/16/2016 14:00 to 13:10 19.94 20.05 19.82 19.77 19.73 19.69
8/16/2016 13:00 to 12:10 19.67 19.68 19.62 19.61 19.57 19.62
8/16/2016 12:00 to 11:10 19.59 19.54 19.55 19.43 19.48 19.47
8/16/2016 11:00 to 10:10 19.42 19.48 19.45 19.42 19.48 19.44
8/16/2016 10:00 to 9:10 19.45 19.42 19.44 19.42 19.44 19.41
8/16/2016 09:00 to 8:10 19.42 19.41 19.42 19.44 19.42 19.41
8/16/2016 08:00 to 7:10 19.44 19.47 19.47 19.49 19.49 19.50
8/16/2016 07:00 to 6:10 19.51 19.51 19.53 19.57 19.57 19.59
8/16/2016 06:00 to 5:10 19.63 19.61 19.63 19.65 19.68 19.62
8/16/2016 05:00 to 4:10 19.64 19.62 19.60 19.62 19.64 19.65
8/16/2016 04:00 to 3:10 19.69 19.69 19.69 19.71 19.70 19.72
8/16/2016 03:00 to 2:10 19.74 19.75 19.75 19.76 19.78 19.84
8/16/2016 02:00 to 1:10 19.86 19.88 19.88 19.89 19.88 19.93
8/16/2016 01:00 to 0:10 19.93 19.95 19.97 19.97 20.02 20.07
8/16/2016 00:00 to 23:10 20.07 20.13 20.23 20.23 20.24 20.13
8/15/2016 23:00 to 22:10 20.20 20.28 20.34 20.34 20.33 20.29
8/15/2016 22:00 to 21:10 20.32 20.33 20.32 20.32 20.28 20.27
8/15/2016 21:00 to 20:10 20.29 20.28 20.23 20.33 20.22 20.21
8/15/2016 20:00 to 19:10 20.26 20.23 20.13 20.13 20.04 20.00
8/15/2016 19:00 to 18:10 19.96 19.90 19.82 19.80 19.74 19.74
8/15/2016 18:00 to 17:10 19.78 19.72 19.73 19.68 19.65 19.62
8/15/2016 17:00 to 16:10 19.61 19.65 19.65 19.59 19.58 19.58
8/15/2016 16:00 to 15:10 19.56 19.53 19.53 19.55 19.56 19.59
8/15/2016 15:00 to 14:10 19.64 19.69 19.74 19.73 19.67 19.64
8/15/2016 14:00 to 13:10 19.59 19.58 19.61 19.61 19.75 19.71
8/15/2016 13:00 to 12:10 19.70 19.70 19.71 19.72 19.58 19.59
8/15/2016 12:00 to 11:10 19.54 19.47 19.40 19.44 19.39 19.34
8/15/2016 11:00 to 10:10 19.32 19.30 19.28 19.27 19.25 19.21
8/15/2016 10:00 to 9:10 19.19 19.22 19.28 19.37 19.37 19.38
8/15/2016 09:00 to 8:10 19.40 19.41 19.41 19.41 19.41 19.42
8/15/2016 08:00 to 7:10 19.43 19.44 19.45 19.46 19.48 19.50
8/15/2016 07:00 to 6:10 19.52 19.55 19.57 19.60 19.63 19.65
8/15/2016 06:00 to 5:10 19.68 19.70 19.71 19.73 19.75 19.77
8/15/2016 05:00 to 4:10 19.81 19.80 19.76 19.73 19.73 19.74
8/15/2016 04:00 to 3:10 19.74 19.75 19.76 19.76 19.78 19.78
8/15/2016 03:00 to 2:10 19.79 19.80 19.82 19.84 19.84 19.86
8/15/2016 02:00 to 1:10 19.87 19.89 19.91 19.92 19.96 19.99
8/15/2016 01:00 to 0:10 20.00 20.02 20.08 20.10 20.17 20.24